Weather History for Forest City, IA

Change the Weather History Date:

Thursday, November 1, 2012

  Actual Average Record
Temperature  
Mean Temperature 39 °F -  
Max Temperature 48 °F 50 °F 64 °F (2011)
Min Temperature 30 °F 34 °F 30 °F (2012)
Degree Days  
Heating Degree Days 26    
Moisture  
Dew Point 28 °F    
Average Humidity 65    
Maximum Humidity 93    
Minimum Humidity 43    
Precipitation  
Precipitation 0.00 in - - ()
Sea Level Pressure  
Sea Level Pressure 29.95 in    
Wind  
Wind Speed 6 mph (NNW)    
Max Wind Speed 17 mph    
Max Gust Speed 38 mph    
Visibility 10 miles    
Events      
Averages and records for this station are not official NWS values.
T = Trace of Precipitation, MM = Missing Value Source: NWS Daily Summary

Daily Weather History Graph

Daily Weather History Graph

Search for Another Location

Airport:

Trip Planner

Search our weather history database for the weather conditions in past years. The results will help you decide how hot, cold, wet, or windy it might be!

Date:

Astronomy

Nov. 01, 2012 Rise Set
Actual Time 7:50 AM CDT 6:05 PM CDT
Civil Twilight 7:20 AM CDT 6:35 PM CDT
Nautical Twilight 6:46 AM CDT 7:08 PM CDT
Astronomical Twilight 6:13 AM CDT 7:41 PM CDT
Moon 7:59 PM CDT (11/1) 10:26 AM CDT (11/1)
Length of Visible Light 11h 14m
Length of Day
10h 15m
Waning Gibbous, 93% of the Moon is Illuminated
Nov 1
Waning Gibbous
Nov 6
Last Quarter
Nov 13
New
Nov 20
First Quarter
Nov 28
Full

Hourly Weather History & Observations

Time (CDT) Temp. Windchill Dew Point Humidity Pressure Visibility Wind Dir Wind Speed Gust Speed Precip Events Conditions
12:15 AM 32.0 °F - 26.6 °F 80% 29.94 in 10.0 mi Calm Calm - N/A   Overcast
12:35 AM 33.8 °F - 26.6 °F 75% 29.94 in 10.0 mi Calm Calm - N/A   Mostly Cloudy
12:55 AM 33.8 °F - 28.4 °F 81% 29.94 in 10.0 mi Calm Calm - N/A   Overcast
1:15 AM 32.0 °F - 28.4 °F 87% 29.93 in 10.0 mi Calm Calm - N/A   Overcast
1:35 AM 32.0 °F - 30.2 °F 93% 29.93 in 10.0 mi Calm Calm - N/A   Overcast
1:55 AM 33.8 °F - 30.2 °F 87% 29.92 in 10.0 mi Calm Calm - N/A   Overcast
2:15 AM 33.8 °F - 30.2 °F 87% 29.93 in 10.0 mi Calm Calm - N/A   Overcast
2:35 AM 35.6 °F - 28.4 °F 75% 29.92 in 10.0 mi Calm Calm - N/A   Overcast
2:55 AM 35.6 °F - 30.2 °F 81% 29.92 in 10.0 mi Calm Calm - N/A   Overcast
3:15 AM 37.4 °F - 30.2 °F 75% 29.92 in 10.0 mi Calm Calm - N/A   Overcast
3:35 AM 37.4 °F - 30.2 °F 75% 29.92 in 10.0 mi Calm Calm - N/A   Overcast
3:55 AM 37.4 °F - 32.0 °F 81% 29.92 in 10.0 mi Calm Calm - N/A   Overcast
4:15 AM 37.4 °F - 32.0 °F 81% 29.92 in 10.0 mi Calm Calm - N/A   Overcast
4:35 AM 39.2 °F - 32.0 °F 75% 29.92 in 10.0 mi Calm Calm - N/A   Overcast
4:55 AM 41.0 °F 38.0 °F 32.0 °F 70% 29.92 in 10.0 mi West 4.6 mph - N/A   Overcast
5:15 AM 41.0 °F - 32.0 °F 70% 29.92 in 10.0 mi Calm Calm - N/A   Overcast
5:35 AM 42.8 °F 39.3 °F 32.0 °F 66% 29.92 in 10.0 mi WNW 5.8 mph - N/A   Overcast
5:55 AM 42.8 °F 37.5 °F 33.8 °F 70% 29.92 in 10.0 mi NW 9.2 mph - N/A   Overcast
6:35 AM 42.8 °F 38.0 °F 32.0 °F 66% 29.93 in 10.0 mi NW 8.1 mph - N/A   Overcast
6:55 AM 41.0 °F 34.3 °F 32.0 °F 70% 29.93 in 10.0 mi NW 11.5 mph - N/A   Scattered Clouds
7:15 AM 41.0 °F 33.5 °F 32.0 °F 70% 29.93 in 10.0 mi NW 13.8 mph - N/A   Clear
7:35 AM 39.2 °F 30.5 °F 32.0 °F 75% 29.93 in 10.0 mi NNW 16.1 mph 19.6 mph N/A   Clear
7:55 AM 39.2 °F 30.5 °F 32.0 °F 75% 29.94 in 10.0 mi NNW 16.1 mph 38.0 mph N/A   Clear
8:15 AM 37.4 °F 28.5 °F 32.0 °F 81% 29.94 in 10.0 mi NNW 15.0 mph 20.7 mph N/A   Clear
8:35 AM 37.4 °F 28.9 °F 32.0 °F 81% 29.95 in 10.0 mi NNW 13.8 mph - N/A   Clear
8:55 AM 39.2 °F 31.2 °F 32.0 °F 75% 29.96 in 10.0 mi North 13.8 mph - N/A   Clear
9:15 AM 41.0 °F 33.5 °F 32.0 °F 70% 29.96 in 10.0 mi North 13.8 mph 26.5 mph N/A   Clear
9:35 AM 41.0 °F 33.9 °F 32.0 °F 70% 29.96 in 10.0 mi North 12.7 mph 24.2 mph N/A   Clear
10:15 AM 42.8 °F 36.2 °F 32.0 °F 66% 29.98 in 10.0 mi North 12.7 mph 32.2 mph N/A   Clear
10:35 AM 42.8 °F 36.2 °F 32.0 °F 66% 29.98 in 10.0 mi North 12.7 mph 21.9 mph N/A   Scattered Clouds
10:55 AM 44.6 °F 38.1 °F 33.8 °F 66% 29.97 in 10.0 mi NNW 13.8 mph - N/A   Mostly Cloudy
11:15 AM 44.6 °F 37.8 °F 33.8 °F 66% 29.97 in 10.0 mi NNW 15.0 mph 19.6 mph N/A   Mostly Cloudy
11:35 AM 44.6 °F 37.8 °F 32.0 °F 61% 29.98 in 10.0 mi NNW 15.0 mph - N/A   Overcast
12:15 PM 44.6 °F 38.1 °F 32.0 °F 61% 29.99 in 10.0 mi NNW 13.8 mph - N/A   Overcast
12:35 PM 46.4 °F 40.1 °F 32.0 °F 57% 29.97 in 10.0 mi NNW 15.0 mph - N/A   Mostly Cloudy
12:55 PM 46.4 °F 40.7 °F 32.0 °F 57% 29.97 in 10.0 mi NNW 12.7 mph 17.3 mph N/A   Scattered Clouds
1:15 PM 46.4 °F 39.8 °F 30.2 °F 53% 29.96 in 10.0 mi North 16.1 mph - N/A   Clear
1:35 PM 46.4 °F 40.4 °F 30.2 °F 53% 29.95 in 10.0 mi North 13.8 mph 19.6 mph N/A   Clear
1:55 PM 48.2 °F - 30.2 °F 50% 29.95 in 10.0 mi NNW 15.0 mph 20.7 mph N/A   Clear
2:15 PM 48.2 °F - 28.4 °F 46% 29.95 in 10.0 mi NW 16.1 mph 20.7 mph N/A   Clear
2:35 PM 48.2 °F - 26.6 °F 43% 29.95 in 10.0 mi NNW 17.3 mph 25.3 mph N/A   Clear
2:55 PM 48.2 °F - 26.6 °F 43% 29.93 in 10.0 mi NNW 15.0 mph 19.6 mph N/A   Clear
3:15 PM 48.2 °F - 26.6 °F 43% 29.93 in 10.0 mi NW 13.8 mph - N/A   Clear
3:35 PM 48.2 °F - 26.6 °F 43% 29.94 in 10.0 mi NNW 11.5 mph 19.6 mph N/A   Clear
3:55 PM 48.2 °F - 28.4 °F 46% 29.94 in 10.0 mi NNW 13.8 mph 18.4 mph N/A   Clear
4:15 PM 48.2 °F - 26.6 °F 43% 29.94 in 10.0 mi NNW 15.0 mph - N/A   Clear
4:35 PM 46.4 °F 39.8 °F 26.6 °F 46% 29.94 in 10.0 mi NNW 16.1 mph - N/A   Clear
4:55 PM 46.4 °F 40.1 °F 24.8 °F 43% 29.94 in 10.0 mi NW 15.0 mph 19.6 mph N/A   Clear
5:15 PM 44.6 °F 38.1 °F 26.6 °F 49% 29.94 in 10.0 mi NNW 13.8 mph 17.3 mph N/A   Clear
5:35 PM 44.6 °F 38.4 °F 26.6 °F 49% 29.95 in 10.0 mi NNW 12.7 mph 20.7 mph N/A   Clear
5:55 PM 42.8 °F 35.8 °F 24.8 °F 49% 29.95 in 10.0 mi NNW 13.8 mph - N/A   Clear
6:15 PM 41.0 °F 35.2 °F 24.8 °F 53% 29.95 in 10.0 mi NNW 9.2 mph - N/A   Clear
6:35 PM 39.2 °F 34.2 °F 24.8 °F 56% 29.96 in 10.0 mi NNW 6.9 mph - N/A   Clear
6:55 PM 39.2 °F 33.6 °F 23.0 °F 52% 29.96 in 10.0 mi North 8.1 mph - N/A   Clear
7:15 PM 37.4 °F 31.4 °F 23.0 °F 56% 29.97 in 10.0 mi NNW 8.1 mph - N/A   Clear
7:35 PM 37.4 °F 32.1 °F 23.0 °F 56% 29.97 in 10.0 mi North 6.9 mph - N/A   Clear
7:55 PM 35.6 °F 29.9 °F 23.0 °F 60% 29.98 in 10.0 mi NNW 6.9 mph - N/A   Clear
8:15 PM 33.8 °F 28.6 °F 23.0 °F 65% 29.98 in 10.0 mi North 5.8 mph - N/A   Clear
8:55 PM 32.0 °F 26.4 °F 23.0 °F 69% 29.98 in 10.0 mi North 5.8 mph - N/A   Clear
9:15 PM 32.0 °F 27.5 °F 23.0 °F 69% 29.99 in 10.0 mi North 4.6 mph - N/A   Clear
9:35 PM 32.0 °F 26.4 °F 23.0 °F 69% 29.99 in 10.0 mi North 5.8 mph - N/A   Clear
9:55 PM 32.0 °F 27.5 °F 23.0 °F 69% 29.99 in 10.0 mi North 4.6 mph - N/A   Clear
10:15 PM 32.0 °F 26.4 °F 23.0 °F 69% 29.99 in 10.0 mi North 5.8 mph - N/A   Clear
10:35 PM 30.2 °F 26.7 °F 23.0 °F 75% 30.01 in 10.0 mi North 3.5 mph - N/A   Clear
10:55 PM 32.0 °F - 23.0 °F 69% 30.01 in 10.0 mi Calm Calm - N/A   Clear
11:15 PM 30.2 °F - 23.0 °F 75% 30.01 in 10.0 mi Calm Calm - N/A   Clear
11:35 PM 32.0 °F - 23.0 °F 69% 30.02 in 10.0 mi Calm Calm - N/A   Clear
11:55 PM 32.0 °F - 23.0 °F 69% 30.02 in 10.0 mi Calm Calm - N/A   Clear